Weather History for Durango, CO

Change the Weather History Date:

Monday, July 29, 2013

  Actual Average Record
Temperature  
Mean Temperature 68 °F 70 °F  
Max Temperature 81 °F 85 °F 94 °F (1972)
Min Temperature 54 °F 54 °F 44 °F (1986)
Degree Days  
Heating Degree Days 0 0  
Month to date heating degree days 0 8  
Since 1 June heating degree days 40 123  
Since 1 July heating degree days 0 8  
Cooling Degree Days 3 5  
Month to date cooling degree days 182 115  
Year to date cooling degree days 237 144  
Since 1 June cooling degree days 237 143  
Growing Degree Days 17 (Base 50)    
Moisture  
Dew Point 49 °F    
Average Humidity 63    
Maximum Humidity 100    
Minimum Humidity 26    
Precipitation  
Precipitation 0.00 in 0.08 in 0.32 in (1983)
Month to date precipitation 2.07 1.56  
Year to date precipitation 5.84 7.63  
Sea Level Pressure  
Sea Level Pressure 30.01 in    
Wind  
Wind Speed 7 mph (NW)    
Max Wind Speed 24 mph    
Max Gust Speed 32 mph    
Visibility 10 miles    
Events      
T = Trace of Precipitation, MM = Missing Value Source: NWS Daily Summary

Daily Weather History Graph

Daily Weather History Graph

Search for Another Location

Airport:

Trip Planner

Search our weather history database for the weather conditions in past years. The results will help you decide how hot, cold, wet, or windy it might be!

Date:

Astronomy

Jul. 29, 2013 Rise Set
Actual Time 6:13 AM MDT 8:20 PM MDT
Civil Twilight 5:44 AM MDT 8:49 PM MDT
Nautical Twilight 5:09 AM MDT 9:25 PM MDT
Astronomical Twilight 4:30 AM MDT 10:03 PM MDT
Moon No Moon Rise 1:46 PM MDT (7/29)
Length of Visible Light 15h 04m
Length of Day
14h 07m
Waning Gibbous, 50% of the Moon is Illuminated
Jul 29
Waning Gibbous
Aug 6
New
Aug 14
First Quarter
Aug 20
Full
Aug 28
Last Quarter

Hourly Weather History & Observations

Time (MDT) Temp. Dew Point Humidity Pressure Visibility Wind Dir Wind Speed Gust Speed Precip Events Conditions
12:53 AM 59.0 °F 53.1 °F 81% 29.96 in 10.0 mi NNE 6.9 mph - N/A   Mostly Cloudy
1:53 AM 59.0 °F 54.0 °F 83% 29.98 in 10.0 mi Calm Calm - N/A   Mostly Cloudy
2:53 AM 59.0 °F 53.1 °F 81% 29.97 in 10.0 mi Calm Calm - N/A   Partly Cloudy
3:53 AM 55.9 °F 54.0 °F 93% 29.96 in 10.0 mi North 4.6 mph - N/A   Partly Cloudy
4:53 AM 55.9 °F 52.0 °F 87% 29.96 in 10.0 mi North 3.5 mph - N/A   Mostly Cloudy
5:53 AM 55.0 °F 52.0 °F 89% 30.01 in 10.0 mi Calm Calm - N/A   Scattered Clouds
6:53 AM 54.0 °F 53.1 °F 97% 30.01 in 10.0 mi ENE 3.5 mph - N/A   Clear
7:53 AM 57.9 °F 53.1 °F 84% 30.02 in 10.0 mi Calm Calm - N/A   Partly Cloudy
8:53 AM 64.0 °F 52.0 °F 65% 30.02 in 10.0 mi Calm Calm - N/A   Clear
9:53 AM 66.9 °F 50.0 °F 54% 30.02 in 10.0 mi Variable 3.5 mph - N/A   Clear
10:53 AM 71.1 °F 54.0 °F 55% 30.01 in 10.0 mi WSW 8.1 mph - N/A   Clear
11:53 AM 75.0 °F 53.1 °F 46% 29.99 in 10.0 mi WSW 15.0 mph 20.7 mph N/A   Scattered Clouds
12:53 PM 77.0 °F 50.0 °F 39% 29.99 in 10.0 mi West 16.1 mph 28.8 mph N/A   Partly Cloudy
1:53 PM 78.1 °F 45.0 °F 31% 29.98 in 10.0 mi West 17.3 mph 29.9 mph N/A   Partly Cloudy
2:53 PM 79.0 °F 45.0 °F 30% 29.97 in 10.0 mi West 16.1 mph 27.6 mph N/A   Partly Cloudy
3:53 PM 80.1 °F 43.0 °F 27% 29.97 in 10.0 mi WNW 13.8 mph 25.3 mph N/A   Clear
4:53 PM 80.1 °F 44.1 °F 28% 29.97 in 10.0 mi West 13.8 mph 23.0 mph N/A   Clear
5:53 PM 78.1 °F 43.0 °F 29% 29.99 in 10.0 mi NW 16.1 mph 25.3 mph N/A   Scattered Clouds
6:04 PM 78.8 °F 44.6 °F 30% 30.24 in 10.0 mi North 15.0 mph 20.7 mph N/A   Partly Cloudy
6:53 PM 77.0 °F 45.0 °F 32% 30.00 in 10.0 mi NNW 10.4 mph - N/A   Mostly Cloudy
7:53 PM 75.9 °F 46.0 °F 35% 30.00 in 10.0 mi West 9.2 mph - N/A   Clear
8:53 PM 72.0 °F 46.0 °F 40% 30.01 in 10.0 mi WNW 8.1 mph - N/A   Clear
9:53 PM 69.1 °F 45.0 °F 42% 30.04 in 10.0 mi NW 6.9 mph - N/A   Clear
10:53 PM 63.0 °F 46.9 °F 56% 30.06 in 10.0 mi Calm Calm - N/A   Clear
11:53 PM 60.1 °F 48.0 °F 64% 30.08 in 10.0 mi Calm Calm - N/A   Clear